Export;EXP-2023-01 (20230705 18:33);;;StationsCode;NL01484;NL01485;NL01496;NL10133;NL10318;NL10444;NL10644;NL10722;NL10934;NL49016;NL49551;NL49553;NL49704
Periode;20220101 00:00 - 20230101 00:00;;;BeheerderMeetStation;DCMR;DCMR;DCMR;RIVM;RIVM;RIVM;RIVM;RIVM;RIVM;GGD A'dam;GGD A'dam;GGD A'dam;GGD A'dam
Bron;https://data.rivm.nl/data/luchtmeetnet;;;StationsNaam;Botlek-Oude Maasweg;Hoogvliet-Leemkuil;Hoek v. Holland-Berghaven;Wijnandsrade-Opfergeltstraat;Philippine-Stelleweg;De Zilk-Vogelaarsdreef;Cabauw-Wielsekade;Eibergen-Lintveldseweg;Kollumerwaard-Hooge Zuidwal;Amsterdam-Westerpark;IJmuiden-Kanaaldijk;Wijk aan Zee-Burgemeester Rothestraat;Amsterdam-Hoogtij
Beschrijving data;https://data.rivm.nl/data/luchtmeetnet/readme.pdf;;;Latitude,Longitude;(51.888889,4.3125);(51.867411,4.355242);(51.977803,4.121944);(50.902281,5.881748);(51.294498,3.749484);(52.296556,4.510817);(51.974489,4.923301);(52.091801,6.605367);(53.330425,6.276815);(52.393972,4.870157);(52.463039,4.601842);(52.493992,4.601986);(52.428017,4.773478)
Accreditatienummer;https://www.rva.nl/alle-geaccrediteerden/;;;StationsGebied;stad;stad;voorstad;regionaal;regionaal;regionaal;regionaal;regionaal;regionaal;stad;stad;stad;regionaal
;;;;StationsType;industrie;achtergrond;industrie;achtergrond;achtergrond;achtergrond;achtergrond;achtergrond;achtergrond;achtergrond;industrie;industrie;industrie
;;;;Meetprincipe;Ultraviolet fluorescentie (UV-F);Ultraviolet fluorescentie (UV-F);Ultraviolet fluorescentie (UV-F);Ultraviolet fluorescentie (UV-F);Ultraviolet fluorescentie (UV-F);Ultraviolet fluorescentie (UV-F);Ultraviolet fluorescentie (UV-F);Ultraviolet fluorescentie (UV-F);Ultraviolet fluorescentie (UV-F);Ultraviolet fluorescentie (UV-F);Ultraviolet fluorescentie (UV-F);Ultraviolet fluorescentie (UV-F);Ultraviolet fluorescentie (UV-F)
;;;;Meetopstelling;Teledyne API 100E UV Fluorescent SO2 Analyser;Teledyne API 100E UV Fluorescent SO2 Analyser;Teledyne API 100E UV Fluorescent SO2 Analyser;Thermo model 43i SO2 analyser;Thermo model 43i SO2 analyser;Thermo model 43i SO2 analyser;Thermo model 43i SO2 analyser;Thermo model 43i SO2 analyser;Thermo model 43i SO2 analyser;Thermo model 43i SO2 analyser;Thermo model 43i SO2 analyser;Thermo model 43i SO2 analyser;Thermo model 43i SO2 analyser
;;;;Accreditatienummer;L520;L520;L520;L224;L224;L224;L224;L224;L224;L426;L426;L426;L426
Component;Bep.periode;Eenheid; Begindatumtijd;Einddatumtijd;NL01484;NL01485;NL01496;NL10133;NL10318;NL10444;NL10644;NL10722;NL10934;NL49016;NL49551;NL49553;NL49704
SO2;uur;�g/m�;20220101 00:00;20220101 01:00;-0.7;0.9;-0.5;0.9;0.08;0.22;1.38;0.32;0.9;0.8;6.2;3;0.9
SO2;uur;�g/m�;20220101 01:00;20220101 02:00;-0.6;1;-1.5;0.59;0.06;0.36;0.85;0.48;0.9;1.1;4.4;4.8;0.5
SO2;uur;�g/m�;20220101 02:00;20220101 03:00;-0.5;0.7;-1.4;0.56;0.16;0.23;0.35;0.64;0.41;1.5;2.5;3.1;1
SO2;uur;�g/m�;20220101 03:00;20220101 04:00;2;0.9;-0.8;0.53;0.18;0.14;0.42;0.53;0.35;1.2;2.5;2.6;0.7
SO2;uur;�g/m�;20220101 04:00;20220101 05:00;9.3;0.6;-0.4;0.3;0.12;0.74;0.28;0.14;0.17;0.7;2.8;3.3;0.6
SO2;uur;�g/m�;20220101 05:00;20220101 06:00;11.8;0.8;-0.7;0.24;0.34;1.1;0.24;0;0.12;0.7;2.1;3.1;1.2
SO2;uur;�g/m�;20220101 06:00;20220101 07:00;10.6;0.8;-1;0.01;0.5;1.08;0.32;-0.01;0.12;0.7;1.9;3.5;1.7
SO2;uur;�g/m�;20220101 07:00;20220101 08:00;7.4;0.9;-0.3;-0.06;0.06;1.41;0.5;-0.01;0.12;0.8;2.3;;2.4
SO2;uur;�g/m�;20220101 08:00;20220101 09:00;4.8;0.8;0;-0.13;0.05;1.54;0.85;0.02;0.11;1.2;3.4;13.4;2.2
SO2;uur;�g/m�;20220101 09:00;20220101 10:00;4;0.8;-0.1;-0.16;0.01;1.22;1.17;0;0.21;1.5;3.2;16.5;2.5
SO2;uur;�g/m�;20220101 10:00;20220101 11:00;2.6;0.7;-0.9;-0.13;0.05;1.87;1.14;-0.04;0.48;1.5;3;21.6;3.8
SO2;uur;�g/m�;20220101 11:00;20220101 12:00;2.3;0.8;0.7;-0.18;0.03;2.18;1.06;-0.03;0.63;0.9;3.7;21.6;3.4
SO2;uur;�g/m�;20220101 12:00;20220101 13:00;2.4;0.7;0.9;-0.08;0.06;1.91;0.84;0.01;0.55;0.5;3.7;22.8;2.3
SO2;uur;�g/m�;20220101 13:00;20220101 14:00;2;0.9;1.2;-0.11;0.05;2.26;0.65;0.01;0.5;0.6;2.3;16.3;2.1
SO2;uur;�g/m�;20220101 14:00;20220101 15:00;1.9;0.7;2.1;-0.18;0.04;2.54;0.56;-0.03;0.44;0.7;3.4;26.2;2.1
SO2;uur;�g/m�;20220101 15:00;20220101 16:00;1.6;0.7;3;-0.08;0.1;2.12;0.33;-0.1;0.44;0.4;3.3;31.7;2.9
SO2;uur;�g/m�;20220101 16:00;20220101 17:00;1.6;0.8;0.9;-0.15;0.17;2.82;0.32;-0.1;0.34;0.4;4.1;42.1;2.4
SO2;uur;�g/m�;20220101 17:00;20220101 18:00;1.6;0.6;1.1;-0.13;0.23;2.52;0.29;0.62;0.31;0.6;3.9;35.4;2
SO2;uur;�g/m�;20220101 18:00;20220101 19:00;1.9;0.7;1.4;-0.16;0.29;2.34;0.41;1.42;0.27;0.5;3.2;21;3.1
SO2;uur;�g/m�;20220101 19:00;20220101 20:00;1.9;0.7;6.2;-0.17;0.24;3.21;0.33;3.2;0.32;0.6;3.8;45.1;2.6
SO2;uur;�g/m�;20220101 20:00;20220101 21:00;2;0.6;3.1;-0.1;0.38;2.37;0.22;2.24;0.34;0.7;4.2;53.3;2.2
SO2;uur;�g/m�;20220101 21:00;20220101 22:00;2.1;0.7;1.4;-0.12;0.68;1.76;0.21;1.59;0.34;1;3.4;56.2;2.9
SO2;uur;�g/m�;20220101 22:00;20220101 23:00;2;0.6;1.1;-0.12;0.73;1.8;0.38;0.91;0.35;1.1;3.8;45.2;3.9
SO2;uur;�g/m�;20220101 23:00;20220102 00:00;2.5;1;1.3;-0.11;0.72;1.8;0.77;0.56;0.4;1.2;4;28.6;3
SO2;uur;�g/m�;20220102 00:00;20220102 01:00;2.5;0.8;1.3;-0.12;0.41;1.39;0.77;0.31;0.44;1.1;3.3;28.6;2.6
SO2;uur;�g/m�;20220102 01:00;20220102 02:00;2.3;0.6;1.1;-0.15;0.26;1.14;0.57;0.12;0.47;0.7;2.4;31.8;2.1
SO2;uur;�g/m�;20220102 02:00;20220102 03:00;2.6;0.6;1.6;-0.02;0.25;1.01;0.47;0.02;0.52;0.6;3;41.3;2.5
SO2;uur;�g/m�;20220102 03:00;20220102 04:00;9.4;0.8;0.2;-0.01;0.29;1.2;0.59;-0.1;0.35;0.5;3.4;35.6;2.6
SO2;uur;�g/m�;20220102 04:00;20220102 05:00;13.8;0.9;-0.1;0.39;0.19;1.26;0.89;0.43;-0.03;0.9;3.2;16.8;2.4
SO2;uur;�g/m�;20220102 05:00;20220102 06:00;4.3;0.7;4;0.41;0.29;1.36;0.65;0.42;-0.05;0.7;2.5;13.8;1.9
SO2;uur;�g/m�;20220102 06:00;20220102 07:00;2.9;0.7;3.6;;;;;;;0.6;2.5;40.9;2
SO2;uur;�g/m�;20220102 07:00;20220102 08:00;2.7;0.9;2.7;0.54;0.4;1.03;0.98;1.38;0.12;0.5;2.4;41.8;2
SO2;uur;�g/m�;20220102 08:00;20220102 09:00;13.9;0.5;1.6;0.38;0.35;1.08;0.57;0.76;0;0.4;2.4;17.1;1.9
SO2;uur;�g/m�;20220102 09:00;20220102 10:00;25.6;1.3;0.5;0.35;0.26;0.89;0.69;0.98;0.01;0.5;2.8;11.3;1.5
SO2;uur;�g/m�;20220102 10:00;20220102 11:00;20.4;1.3;0.5;0.48;0.24;0.89;0.66;0.75;-0.07;0.7;2.9;4.9;1.3
SO2;uur;�g/m�;20220102 11:00;20220102 12:00;5.7;1.2;0;0.61;0.17;0.56;0.58;0.59;-0.04;0.5;;2.6;0.8
SO2;uur;�g/m�;20220102 12:00;20220102 13:00;3.3;0.7;-0.3;0.42;0.07;0.39;0.4;0.6;0.02;0.3;1.9;2.5;0.5
SO2;uur;�g/m�;20220102 13:00;20220102 14:00;2.3;0.6;0.1;0.38;0.01;0.3;0.41;0.52;-0.08;0.1;2.4;1.4;0.4
SO2;uur;�g/m�;20220102 14:00;20220102 15:00;2;0.5;-0.5;0.35;-0.01;0.24;0.33;0.42;-0.14;0.2;2.3;1.2;0.3
SO2;uur;�g/m�;20220102 15:00;20220102 16:00;1.1;0.7;-0.2;0.37;-0.03;0.28;0.23;0.38;-0.16;0.2;1.3;1.6;0.3
SO2;uur;�g/m�;20220102 16:00;20220102 17:00;0.2;0.6;0.7;0.31;-0.05;0.24;0.21;0.32;-0.1;0.2;2.5;2.1;0.4
SO2;uur;�g/m�;20220102 17:00;20220102 18:00;1.6;0.6;0.6;0.45;0.04;0.28;0.37;0.32;-0.16;0.1;1.8;4.2;0.4
SO2;uur;�g/m�;20220102 18:00;20220102 19:00;6.4;0.7;0.7;0.35;-0.03;0.34;0.43;0.32;-0.18;0.1;1.9;14.3;0.4
SO2;uur;�g/m�;20220102 19:00;20220102 20:00;6.5;0.6;0;0.19;-0.01;0.37;0.31;0.34;-0.11;0.2;2.4;8.2;0.5
SO2;uur;�g/m�;20220102 20:00;20220102 21:00;2.9;0.6;-0.3;0.26;0.06;0.24;0.3;0.36;-0.08;0.2;1.4;4.1;0.3
SO2;uur;�g/m�;20220102 21:00;20220102 22:00;2.1;0.6;-0.2;0.16;0.37;0.18;0.36;0.31;-0.1;0;2.1;1.9;0.3
SO2;uur;�g/m�;20220102 22:00;20220102 23:00;1.6;0.5;-0.4;0.28;0.4;0.15;0.94;0.26;-0.18;0.1;1.3;1.5;0.2
SO2;uur;�g/m�;20220102 23:00;20220103 00:00;1.2;0.2;-0.4;0.26;0.09;0.13;0.48;0.23;-0.18;0.1;2.2;1.7;0.2
SO2;uur;�g/m�;20220103 00:00;20220103 01:00;1.2;0.4;-0.4;0.45;0.05;0.17;0.29;0.27;-0.17;0.1;2.8;1.4;0.2
SO2;uur;�g/m�;20220103 01:00;20220103 02:00;1.1;0.6;-0.2;0.37;0.02;0.16;0.22;0.21;-0.17;0.1;2.6;1.4;0.3
SO2;uur;�g/m�;20220103 02:00;20220103 03:00;0.9;0.4;-0.4;0.27;-0.04;0.16;0.24;0.19;-0.15;0.1;2.4;1.2;0.1
SO2;uur;�g/m�;20220103 03:00;20220103 04:00;1;0;-0.5;0.26;-0.05;0.14;0.23;0.2;-0.18;0.1;2.2;2;0.1
SO2;uur;�g/m�;20220103 04:00;20220103 05:00;0.8;0.6;-0.3;-0.01;0.22;0.13;0.01;0.19;-0.18;0.2;2.4;1.3;0.1
SO2;uur;�g/m�;20220103 05:00;20220103 06:00;0.5;-0.2;-0.7;0.01;0.22;0.16;0;0.24;-0.16;0.1;2.1;1.3;0.1
SO2;uur;�g/m�;20220103 06:00;20220103 07:00;0.6;0.5;-0.4;0.05;0.23;0.16;0.2;0.19;-0.12;0;2.3;0.8;0.2
SO2;uur;�g/m�;20220103 07:00;20220103 08:00;1;0.6;-0.7;0.09;0.22;0.16;0.16;0.17;-0.13;0.1;1.8;0.8;0.2
SO2;uur;�g/m�;20220103 08:00;20220103 09:00;0.9;0.5;-0.4;0.02;0.2;0.16;0.16;0.24;-0.13;0;2.6;0.9;0.2
SO2;uur;�g/m�;20220103 09:00;20220103 10:00;0.7;0.2;-0.5;0.06;0.24;0.17;0.25;0.28;-0.12;0;2.3;;0.3
SO2;uur;�g/m�;20220103 10:00;20220103 11:00;1.3;0.6;-0.3;0.07;0.23;0.15;0.3;0.01;-0.14;0;1.7;0.9;0.2
SO2;uur;�g/m�;20220103 11:00;20220103 12:00;4.6;0.7;0.9;0.05;0.23;0.21;0.25;-0.1;-0.14;0.1;1.6;1.9;0.2
SO2;uur;�g/m�;20220103 12:00;20220103 13:00;2;1;0.2;0.04;0.22;0.28;0.2;-0.02;-0.11;0.1;2.2;2.3;0.3
SO2;uur;�g/m�;20220103 13:00;20220103 14:00;2;0.9;0.3;0;0.21;0.38;0.23;-0.04;-0.16;0.1;1.7;3.1;0.3
SO2;uur;�g/m�;20220103 14:00;20220103 15:00;2.1;0.9;0.7;-0.03;0.2;0.18;0.28;-0.09;-0.16;0;2.3;2.4;0.2
SO2;uur;�g/m�;20220103 15:00;20220103 16:00;1.8;1;-0.2;-0.01;0.2;0.23;0.3;-0.14;-0.13;0.1;1.6;2.2;0.2
SO2;uur;�g/m�;20220103 16:00;20220103 17:00;1.4;0.9;-0.1;-0.06;0.2;0.17;0.34;-0.2;-0.13;-0.1;1.9;2.2;0.2
SO2;uur;�g/m�;20220103 17:00;20220103 18:00;0.9;0.7;-0.2;-0.02;0.25;0.12;0.3;-0.2;-0.17;-0.1;2;2.1;0.1
SO2;uur;�g/m�;20220103 18:00;20220103 19:00;1.4;0.5;-0.1;0.01;0.23;0.12;0.24;-0.18;-0.15;-0.1;1.9;2.9;0.2
SO2;uur;�g/m�;20220103 19:00;20220103 20:00;2.1;0.9;0;-0.01;0.25;0.14;0.21;-0.15;-0.19;0;2.1;2.7;0.1
SO2;uur;�g/m�;20220103 20:00;20220103 21:00;2.8;0.8;0;-0.04;0.29;0.18;0.17;-0.14;-0.17;0;1.4;1.7;2.2
SO2;uur;�g/m�;20220103 21:00;20220103 22:00;3.4;0.7;0.4;0.01;0.22;0.13;0.12;-0.11;-0.15;0;1.6;2.1;0.9
SO2;uur;�g/m�;20220103 22:00;20220103 23:00;2.1;0.7;0.5;-0.03;0.24;0.16;0.1;-0.13;-0.17;0.1;1.8;1.8;1
SO2;uur;�g/m�;20220103 23:00;20220104 00:00;2.6;0.9;0.2;0.05;0.19;0.2;0.07;-0.2;-0.16;0.1;1.4;1.7;0.6
SO2;uur;�g/m�;20220104 00:00;20220104 01:00;3;1;0.6;-0.04;0.23;0.29;0.06;-0.23;-0.13;0.1;1.3;2.7;0.4
SO2;uur;�g/m�;20220104 01:00;20220104 02:00;6.6;1;0.5;-0.05;0.2;0.61;0.04;-0.24;-0.1;0.1;1.9;2.2;0.9
SO2;uur;�g/m�;20220104 02:00;20220104 03:00;5.5;0.6;0.4;-0.05;0.18;0.65;0.03;-0.22;-0.13;0.2;2.2;2.1;1.3
SO2;uur;�g/m�;20220104 03:00;20220104 04:00;3.1;0.8;0.5;-0.09;0.22;0.44;0.04;-0.25;-0.14;0.1;2.2;0;1.4
SO2;uur;�g/m�;20220104 04:00;20220104 05:00;7.1;0.8;0.8;-0.13;0.12;0.78;0.3;0.17;0.22;0.1;2.3;1;1.3
SO2;uur;�g/m�;20220104 05:00;20220104 06:00;13.7;0.5;0.5;-0.18;0.13;0.91;0.26;0.18;0.23;0.3;1.4;2.2;1.6
SO2;uur;�g/m�;20220104 06:00;20220104 07:00;7.7;0.3;0.7;-0.18;0.14;0.6;0.27;0.2;0.22;0.2;1.3;0.8;1.6
SO2;uur;�g/m�;20220104 07:00;20220104 08:00;4.1;1.1;0.8;-0.11;0.12;0.44;0.28;0.14;0.17;0.1;2.8;0.9;2.4
SO2;uur;�g/m�;20220104 08:00;20220104 09:00;3.3;0.5;0.9;-0.11;0.13;0.38;0.26;0.15;0.18;0.1;3.1;0.5;2
SO2;uur;�g/m�;20220104 09:00;20220104 10:00;2.1;0.8;1.2;-0.05;0.13;0.31;0.28;0.18;0.2;0;2.4;1.3;0.4
SO2;uur;�g/m�;20220104 10:00;20220104 11:00;3;0.8;0;0.07;0.15;0.27;0.53;0.16;0.17;0;13.7;1;0.4
SO2;uur;�g/m�;20220104 11:00;20220104 12:00;3.6;1;-0.1;0.02;0.18;0.25;0.46;0.14;0.17;0.2;10.7;0.7;0.1
SO2;uur;�g/m�;20220104 12:00;20220104 13:00;1.8;1.7;-0.2;0.05;0.12;0.26;0.37;0.17;0.17;0;22.4;1.6;0
SO2;uur;�g/m�;20220104 13:00;20220104 14:00;1.4;2.8;-0.3;0.24;0.09;0.21;0.64;0.18;0.18;-0.2;;0.8;0
SO2;uur;�g/m�;20220104 14:00;20220104 15:00;1.2;1.2;;0.32;0.1;0.23;0.39;0.12;0.18;0.1;31.7;1.5;0
SO2;uur;�g/m�;20220104 15:00;20220104 16:00;1.2;0.7;;0.35;0.23;0.22;0.34;0.13;0.22;0.4;12.9;1.7;0
SO2;uur;�g/m�;20220104 16:00;20220104 17:00;0.9;0.7;-0.8;0.1;0.12;0.22;0.41;0.1;0.21;0.1;5.3;0.5;0
SO2;uur;�g/m�;20220104 17:00;20220104 18:00;1.3;0.7;-0.3;-0.02;0.07;0.22;0.45;0.11;0.2;;6.9;1.3;0.5
SO2;uur;�g/m�;20220104 18:00;20220104 19:00;0.7;1.5;-0.4;-0.09;0.26;0.2;0.29;0.1;0.2;0.9;11.3;1.1;0.1
SO2;uur;�g/m�;20220104 19:00;20220104 20:00;1;1.8;-0.3;-0.12;0.51;0.22;0.56;0.13;0.19;0.3;8.9;1.3;0
SO2;uur;�g/m�;20220104 20:00;20220104 21:00;1.4;7.2;;-0.11;0.12;0.2;0.32;0.11;0.17;0;3.5;0.8;1.4
SO2;uur;�g/m�;20220104 21:00;20220104 22:00;0.7;2;-0.2;-0.13;0.13;0.23;0.32;0.14;0.2;0.5;1.8;2;0.8
SO2;uur;�g/m�;20220104 22:00;20220104 23:00;1.4;1.7;-0.1;-0.18;0.24;0.19;0.34;0.12;0.19;1.7;1.8;1.6;3.8
SO2;uur;�g/m�;20220104 23:00;20220105 00:00;5;5;-0.1;-0.14;0.2;0.28;0.44;0.14;0.19;0.3;2.4;1.1;3
SO2;uur;�g/m�;20220105 00:00;20220105 01:00;5.9;3.2;0.1;-0.11;0.22;0.33;0.33;0.15;0.18;0.2;1.6;2;1.1
SO2;uur;�g/m�;20220105 01:00;20220105 02:00;4.9;2.2;0.3;-0.01;0.14;0.48;0.32;0.17;0.18;0.1;2.7;2;0.8
SO2;uur;�g/m�;20220105 02:00;20220105 03:00;6.2;5.4;0.9;-0.07;0.15;0.4;0.34;0.17;0.21;0.2;2.1;1.9;0.6
SO2;uur;�g/m�;20220105 03:00;20220105 04:00;2.7;4.9;-0.2;-0.03;0.14;0.32;0.31;0.11;0.19;0.3;1.7;1;0.5
SO2;uur;�g/m�;20220105 04:00;20220105 05:00;1.5;4.9;-0.3;0.33;0.02;0.08;0.14;0.19;-0.07;0.2;2.4;2.2;0.6
SO2;uur;�g/m�;20220105 05:00;20220105 06:00;1.1;3.4;-0.6;0.35;0.01;-0.02;0.12;0.23;-0.08;0.1;1.7;1.4;0.3
SO2;uur;�g/m�;20220105 06:00;20220105 07:00;2.7;4.3;0.2;0.23;0.01;-0.01;0.11;0.27;-0.08;0.2;1.7;2;0.2
SO2;uur;�g/m�;20220105 07:00;20220105 08:00;1.4;6.3;0.3;0.2;0;-0.02;0.11;0.29;-0.08;0.2;2;1.4;0.2
SO2;uur;�g/m�;20220105 08:00;20220105 09:00;2.9;9.9;0.5;0.21;0.02;-0.04;0.18;0.25;-0.09;0.1;1.2;1.5;0.3
SO2;uur;�g/m�;20220105 09:00;20220105 10:00;3.3;10.7;0.4;0.28;-0.01;-0.07;0.12;0.25;-0.12;0.2;1.8;1.2;1.8
SO2;uur;�g/m�;20220105 10:00;20220105 11:00;2.7;16.8;0.6;0.3;0.01;-0.05;0.13;0.21;-0.08;1.1;2.2;1.6;5.1
SO2;uur;�g/m�;20220105 11:00;20220105 12:00;2;7.5;-0.5;0.25;0.07;-0.07;0.13;0.22;-0.06;1.7;1.7;;3.4
SO2;uur;�g/m�;20220105 12:00;20220105 13:00;0.9;4.8;-0.1;0.46;0.03;-0.05;0.13;0.19;-0.02;0.8;1.4;1.1;1.1
SO2;uur;�g/m�;20220105 13:00;20220105 14:00;2.1;4.4;-0.3;0.45;0.04;-0.04;0.16;0.2;-0.02;0.5;1.3;1.5;0.6
SO2;uur;�g/m�;20220105 14:00;20220105 15:00;3.7;4.5;-0.4;0.76;0.06;-0.06;0.11;0.18;-0.04;0.5;2.6;1;0.3
SO2;uur;�g/m�;20220105 15:00;20220105 16:00;2.5;3.9;-0.5;0.63;0.01;-0.06;0.11;0.19;-0.06;0.4;2.2;1.3;0.2
SO2;uur;�g/m�;20220105 16:00;20220105 17:00;2;2.4;-0.6;0.55;0.07;-0.08;0.17;0.21;-0.07;0.6;12.3;1.5;0.1
SO2;uur;�g/m�;20220105 17:00;20220105 18:00;1.5;4.9;-0.6;0.38;0.03;-0.05;0.12;0.2;-0.08;0.8;21.7;1.5;0
SO2;uur;�g/m�;20220105 18:00;20220105 19:00;0.1;2.3;1.1;0.35;0.04;-0.06;0.12;0.18;-0.06;0.7;17.3;1;0
SO2;uur;�g/m�;20220105 19:00;20220105 20:00;-0.2;4.8;0.2;0.27;0.05;-0.08;0.07;0.18;-0.06;0.5;28.1;1.5;0
SO2;uur;�g/m�;20220105 20:00;20220105 21:00;-0.8;6.3;-0.2;0.23;0.08;-0.02;0.09;0.16;-0.04;0.7;20.4;1.1;0
SO2;uur;�g/m�;20220105 21:00;20220105 22:00;-0.6;9.9;-0.1;0.19;0.05;-0.06;0.08;0.17;-0.05;1.4;17.6;1.3;0
SO2;uur;�g/m�;20220105 22:00;20220105 23:00;-0.7;4.5;-0.1;0.22;0.03;-0.06;0.1;0.17;-0.03;2.8;18;0.9;0
SO2;uur;�g/m�;20220105 23:00;20220106 00:00;-1.2;12.5;-0.1;0.2;0.08;-0.08;0.1;0.18;-0.01;3;21.1;2;0
SO2;uur;�g/m�;20220106 00:00;20220106 01:00;-1.1;7;-0.2;0.13;0.02;-0.04;0.08;0.16;-0.06;1;39;1.7;-0.1
SO2;uur;�g/m�;20220106 01:00;20220106 02:00;-0.7;7.9;-0.3;0.17;0.01;-0.1;0.09;0.17;-0.04;0.7;53.2;1.3;-0.1
SO2;uur;�g/m�;20220106 02:00;20220106 03:00;-0.9;7.6;-0.3;0.16;0.02;-0.02;0.1;0.2;0;0.7;26.2;0.4;0
SO2;uur;�g/m�;20220106 03:00;20220106 04:00;0.6;9.5;-0.3;0.19;0.02;-0.02;0.08;0.15;0;0.5;41.3;1.3;0
SO2;uur;�g/m�;20220106 04:00;20220106 05:00;-0.2;5.6;-0.4;-0.09;-0.06;0.12;0.15;-0.04;0.01;0.5;29.9;1.7;0
SO2;uur;�g/m�;20220106 05:00;20220106 06:00;-0.9;2;-0.3;0.02;-0.06;0.14;0.14;-0.06;0.02;0.4;14.5;1.6;0
SO2;uur;�g/m�;20220106 06:00;20220106 07:00;-0.6;1.9;-0.3;0.01;-0.07;0.1;0.15;-0.05;0.01;0.4;14;2.2;0
SO2;uur;�g/m�;20220106 07:00;20220106 08:00;0.7;0.9;-0.4;-0.01;-0.03;0.11;0.18;-0.03;0.02;0.5;4.7;0.9;0.6
SO2;uur;�g/m�;20220106 08:00;20220106 09:00;1.4;0.5;-0.5;0.09;-0.02;0.14;0.22;-0.02;0.01;0.7;3.2;2;1.4
SO2;uur;�g/m�;20220106 09:00;20220106 10:00;1.8;1.3;1.3;0.15;0.03;0.22;0.28;-0.04;0.02;1.1;3.4;2;1.8
SO2;uur;�g/m�;20220106 10:00;20220106 11:00;0.4;3.7;1.4;0.17;0.07;0.22;0.72;-0.03;0.06;1.1;4.1;1.8;2.6
SO2;uur;�g/m�;20220106 11:00;20220106 12:00;1.6;1.7;0.3;0.27;0.13;0.15;0.6;0.02;0.09;0.7;3.2;2;1.7
SO2;uur;�g/m�;20220106 12:00;20220106 13:00;0;0.6;0.5;0.46;0.24;0.14;0.49;0.04;0.12;0.4;2.8;13.3;0.6
SO2;uur;�g/m�;20220106 13:00;20220106 14:00;2.9;0.7;0.4;0.41;1.39;0.15;0.98;0.05;0.06;0.4;3.2;7.5;1.1
SO2;uur;�g/m�;20220106 14:00;20220106 15:00;2.4;1.1;2.1;0.11;0.3;0.61;0.36;0.11;0.02;0.5;2.8;5;0.8
SO2;uur;�g/m�;20220106 15:00;20220106 16:00;2;0.2;1.2;0.12;0.28;0.46;0.4;0.05;0.05;0.8;;7.3;1.4
SO2;uur;�g/m�;20220106 16:00;20220106 17:00;6.1;;4.3;0.03;0.22;0.87;0.34;0.07;0.1;0.6;2.7;2.1;1.6
SO2;uur;�g/m�;20220106 17:00;20220106 18:00;2.7;-0.4;1.8;0.13;0.37;2.75;0.31;0.04;0.07;0.6;3.2;3.8;2
SO2;uur;�g/m�;20220106 18:00;20220106 19:00;1;-0.1;2.5;0.05;0.28;1.6;0.53;0.06;0.09;0.9;3.1;7;2.8
SO2;uur;�g/m�;20220106 19:00;20220106 20:00;1.1;0;1.4;-0.01;0.41;1.62;0.62;0.12;0.14;0.6;3.4;18.9;2.2
SO2;uur;�g/m�;20220106 20:00;20220106 21:00;1.2;0;2.6;-0.05;0.6;2.47;0.61;0.09;0.21;0.6;3.5;17.5;1.5
SO2;uur;�g/m�;20220106 21:00;20220106 22:00;1.3;-0.1;3.5;-0.04;0.84;1.97;0.49;0.14;0.27;0.8;3.8;31.2;1.5
SO2;uur;�g/m�;20220106 22:00;20220106 23:00;3.7;-0.3;5.1;-0.05;0.58;1.8;0.57;0.12;0.35;0.8;3.8;52.2;1.5
SO2;uur;�g/m�;20220106 23:00;20220107 00:00;4;-0.4;0.8;-0.02;0.29;1.03;0.63;0.18;0.35;0.7;3.2;35.8;1.6
SO2;uur;�g/m�;20220107 00:00;20220107 01:00;2.2;-0.7;3.3;-0.03;0.26;0.39;0.52;0.19;0.26;0.4;2.6;26.5;1.6
SO2;uur;�g/m�;20220107 01:00;20220107 02:00;3.5;-0.6;0.6;-0.06;0.16;0.31;0.51;0.18;0.17;0.2;1.9;31.3;1
SO2;uur;�g/m�;20220107 02:00;20220107 03:00;6.4;-0.4;0.5;-0.1;0.08;0.3;0.49;0.1;0.13;0.3;2.2;38.8;0.9
SO2;uur;�g/m�;20220107 03:00;20220107 04:00;4.8;2.6;0.3;-0.06;0.03;0.33;0.56;0.03;0.05;0.3;2.4;37.9;1
SO2;uur;�g/m�;20220107 04:00;20220107 05:00;17.4;1.7;0.3;0;-0.17;0.19;0.34;0.18;0.11;0.3;2.7;29.9;1
SO2;uur;�g/m�;20220107 05:00;20220107 06:00;20;0.4;0.3;-0.01;-0.17;0.29;0.27;0.18;0.03;0.3;3;43.4;1.1
SO2;uur;�g/m�;20220107 06:00;20220107 07:00;28.9;-0.2;0.1;-0.02;-0.17;0.49;0.21;0.17;0.01;0.4;2.5;17.9;1
SO2;uur;�g/m�;20220107 07:00;20220107 08:00;28.6;-0.2;0.5;-0.01;-0.13;0.29;0.28;0.14;0;0.5;2.7;5.3;1.3
SO2;uur;�g/m�;20220107 08:00;20220107 09:00;28.9;-0.3;1.2;0;-0.15;0.52;0.37;0.14;-0.02;0.4;2.9;3.5;1.4
SO2;uur;�g/m�;20220107 09:00;20220107 10:00;29.8;-0.2;0.4;0.03;-0.13;0.31;0.49;0.14;0.03;0.3;2.7;3.2;1.4
SO2;uur;�g/m�;20220107 10:00;20220107 11:00;36;0.1;1.2;0.03;-0.06;0.12;0.74;0.14;0.03;0.5;2.8;2.3;1.7
SO2;uur;�g/m�;20220107 11:00;20220107 12:00;10.4;0.2;1.1;0.16;-0.02;0.08;0.73;0.15;0.02;0.5;2.5;2.4;1.6
SO2;uur;�g/m�;20220107 12:00;20220107 13:00;2.7;0.6;0.5;0.2;-0.01;0.03;0.53;0.18;0.09;0.4;2.2;2.6;0.6
SO2;uur;�g/m�;20220107 13:00;20220107 14:00;3.1;1.1;0.8;0.15;0.02;0.04;0.31;0.16;-0.01;0.2;2.8;;0.6
SO2;uur;�g/m�;20220107 14:00;20220107 15:00;3.8;0.4;1.5;0.19;0.1;-0.01;0.26;0.19;0.01;0.3;2.5;2.4;0.7
SO2;uur;�g/m�;20220107 15:00;20220107 16:00;3.6;;0.4;0.11;0.08;-0.01;0.21;0.17;0.02;0.2;2.4;1.9;0.4
SO2;uur;�g/m�;20220107 16:00;20220107 17:00;1.9;-1.4;1.1;0.18;-0.1;-0.02;0.17;0.15;-0.01;0.2;2;1.3;0.5
SO2;uur;�g/m�;20220107 17:00;20220107 18:00;4;-0.6;0.7;0.02;-0.15;0.02;0.19;0.14;0;0.2;1.4;2.5;0.4
SO2;uur;�g/m�;20220107 18:00;20220107 19:00;3.4;-0.7;0.7;0.05;-0.06;0.02;0.18;0.12;-0.04;0.3;1.4;1.3;0.7
SO2;uur;�g/m�;20220107 19:00;20220107 20:00;8.4;-0.5;0.7;0.08;-0.05;0;0.24;0.1;-0.02;0.2;1.5;1.9;0.5
SO2;uur;�g/m�;20220107 20:00;20220107 21:00;5.4;-0.5;0.5;0.07;-0.03;-0.01;0.22;0.14;0.03;0.4;2;1.2;0.4
SO2;uur;�g/m�;20220107 21:00;20220107 22:00;1.6;1.3;0.6;0.01;-0.01;0.02;0.17;0.14;0;0.2;1.3;1.6;0.3
SO2;uur;�g/m�;20220107 22:00;20220107 23:00;4.1;2.4;0.4;0.07;-0.14;-0.03;0.22;0.16;-0.02;0.2;1.9;1.3;0.5
SO2;uur;�g/m�;20220107 23:00;20220108 00:00;4;4;0.3;0.08;-0.11;0.07;0.24;0.14;0.03;0.2;1.9;1.1;0.4
SO2;uur;�g/m�;20220108 00:00;20220108 01:00;3.5;3.9;0;0.04;-0.17;0.03;0.24;0.16;-0.04;0.1;1.2;2.6;0.2
SO2;uur;�g/m�;20220108 01:00;20220108 02:00;4.4;5.2;0;0.04;-0.14;0.05;0.24;0.16;-0.05;0.3;1.5;1.1;0.3
SO2;uur;�g/m�;20220108 02:00;20220108 03:00;4;2.3;0.3;0.09;-0.17;0.04;0.23;0.16;-0.02;0.4;2.9;1.2;0.2
SO2;uur;�g/m�;20220108 03:00;20220108 04:00;4;1.4;0.2;0.1;-0.21;0.01;0.23;0.14;-0.01;0.3;2.3;1.2;0.5
SO2;uur;�g/m�;20220108 04:00;20220108 05:00;1;0.4;0.6;0.27;0.11;-0.03;0.3;0.08;0.06;0.3;2.4;1.5;0.1
SO2;uur;�g/m�;20220108 05:00;20220108 06:00;11.5;0.3;0.2;0.34;0.09;-0.05;0.4;0.07;0.07;0.1;0.9;0.9;0.2
SO2;uur;�g/m�;20220108 06:00;20220108 07:00;2.3;-0.3;1.2;0.23;0.12;0.01;0.41;0.06;0.06;0.3;2.7;1.7;0.1
SO2;uur;�g/m�;20220108 07:00;20220108 08:00;1;-0.4;1.1;0.22;0.22;-0.01;0.24;0.05;0.07;0.3;1.9;2;0.5
SO2;uur;�g/m�;20220108 08:00;20220108 09:00;0.8;-0.4;1.2;0.32;0.22;-0.02;0.28;0.09;0.08;0.4;3;1.5;2.2
SO2;uur;�g/m�;20220108 09:00;20220108 10:00;0.2;-0.3;1.3;0.36;0.26;0.2;0.39;0.14;0.05;0.3;1.8;2;1.9
SO2;uur;�g/m�;20220108 10:00;20220108 11:00;1.3;-0.1;0.9;0.28;0.23;0.5;1.41;0.19;0.11;0.5;2.6;12.4;2.5
SO2;uur;�g/m�;20220108 11:00;20220108 12:00;0.4;0.2;2.5;0.24;0.36;1.38;1.48;0.18;0.16;0.5;3.6;7.2;2.4
SO2;uur;�g/m�;20220108 12:00;20220108 13:00;-0.1;3.1;1.7;0.24;0.23;1.36;0.94;0.08;0.22;0.7;4.2;8.2;2.1
SO2;uur;�g/m�;20220108 13:00;20220108 14:00;-0.3;-0.4;0.8;0.25;0.13;0.2;0.56;0.11;0.13;0.6;2.6;6.7;1.1
SO2;uur;�g/m�;20220108 14:00;20220108 15:00;-0.2;-0.4;0.7;0.25;0.14;0.1;0.36;0.16;0.17;0.3;2;6;0.6
SO2;uur;�g/m�;20220108 15:00;20220108 16:00;-0.4;-0.2;0.8;0.17;0.09;-0.05;0.3;0.07;0.13;0.1;1.6;6.1;0.3
SO2;uur;�g/m�;20220108 16:00;20220108 17:00;-0.7;-0.2;1.3;0.19;0.12;-0.09;0.24;0.09;0.06;0.2;2.1;5.6;0.2
SO2;uur;�g/m�;20220108 17:00;20220108 18:00;-0.3;0.1;1.4;0.2;0.12;-0.07;0.27;0.42;0.03;0.2;;4.8;0.2
SO2;uur;�g/m�;20220108 18:00;20220108 19:00;-0.1;0;3.1;0.16;0.13;0.04;0.23;1.24;0.06;0.1;2.6;5.5;0.3
SO2;uur;�g/m�;20220108 19:00;20220108 20:00;0.2;0.2;7.7;0.14;0.11;0.46;0.23;1.17;0.05;0.1;1.5;14.2;0.8
SO2;uur;�g/m�;20220108 20:00;20220108 21:00;0.2;-0.1;6.2;0.13;0.14;0.47;0.24;1.38;0.05;0.2;1.8;20.3;1
SO2;uur;�g/m�;20220108 21:00;20220108 22:00;0;-0.1;3.3;0.15;0.11;0.37;0.22;2.05;0.07;0.1;1.8;24;1.3
SO2;uur;�g/m�;20220108 22:00;20220108 23:00;0.4;0.2;2.3;0.14;0.06;0.08;0.21;1.01;0.07;0.2;1.3;10.3;0.9
SO2;uur;�g/m�;20220108 23:00;20220109 00:00;0.1;2.4;1.3;0.13;0.06;-0.05;0.24;0.91;0.06;0.1;2.4;2.1;0.5
SO2;uur;�g/m�;20220109 00:00;20220109 01:00;0.2;2.1;1.3;0.11;0.09;-0.1;0.23;0.85;0.06;0.5;2;1.7;0.3
SO2;uur;�g/m�;20220109 01:00;20220109 02:00;1.2;1.7;1.2;0.11;0.11;-0.09;0.18;0.96;0.01;0.3;1.9;2.4;0.2
SO2;uur;�g/m�;20220109 02:00;20220109 03:00;3;1.7;1.1;0.15;0.12;-0.1;0.21;0.81;0.04;0.3;1.9;2;0.3
SO2;uur;�g/m�;20220109 03:00;20220109 04:00;2.6;3.6;0.9;0.14;0.08;-0.09;0.19;0.18;0.05;0.7;2.6;1.5;1.5
SO2;uur;�g/m�;20220109 04:00;20220109 05:00;4.5;3.6;0.9;0.25;0.13;0.2;0.15;0.1;-0.11;2.1;1.6;2.2;4.5
SO2;uur;�g/m�;20220109 05:00;20220109 06:00;3.4;3.2;0.5;0.34;0.11;0.13;0.2;0.1;-0.09;0.6;1.8;0.9;1.5
SO2;uur;�g/m�;20220109 06:00;20220109 07:00;2.1;2;0.8;;;;;;;0.4;2.1;0.7;0.9
SO2;uur;�g/m�;20220109 07:00;20220109 08:00;1.7;1.9;0.8;0.31;0.27;0.29;0.3;;0.08;0.3;1.4;1.5;0.3
SO2;uur;�g/m�;20220109 08:00;20220109 09:00;3.1;2.1;0.8;0.42;0.15;0.12;0.18;;-0.08;0.3;1.7;1.2;0.4
SO2;uur;�g/m�;20220109 09:00;20220109 10:00;2.9;2.9;0.7;0.62;0.15;0.1;0.16;0.66;-0.09;0.3;2;1.8;0.4
SO2;uur;�g/m�;20220109 10:00;20220109 11:00;2.1;5.1;0.7;0.47;0.16;0.12;0.18;0.37;-0.11;0.4;1.9;1.7;0.2
SO2;uur;�g/m�;20220109 11:00;20220109 12:00;2.5;3.1;0.7;0.53;0.19;0.11;0.22;0.28;-0.09;0.3;1.9;1.1;0.3
SO2;uur;�g/m�;20220109 12:00;20220109 13:00;3.6;2;0.8;0.44;0.15;0.1;0.18;0.25;-0.07;0.2;1.8;1.3;0
SO2;uur;�g/m�;20220109 13:00;20220109 14:00;6.2;3.6;0.8;0.56;0.14;0.06;0.2;0.23;-0.08;0.4;2.7;0.8;1.4
SO2;uur;�g/m�;20220109 14:00;20220109 15:00;7.8;-0.2;1.6;0.92;0.14;0.08;0.19;0.14;-0.08;0.3;2;1.8;0.6
SO2;uur;�g/m�;20220109 15:00;20220109 16:00;6.6;-1.7;0.7;0.69;0.17;0.11;0.22;0.15;-0.09;0.2;2.3;;0.2
SO2;uur;�g/m�;20220109 16:00;20220109 17:00;3.5;0.1;0.6;0.53;0.16;0.12;0.17;0.1;-0.07;0.3;1.9;1.4;0.2